CW1248 Weather Reports


Display with metric or nautical units.
time (UTC)temp
F
wind
direction
speed
MPH
gust
MPH
rain 1hr
in
rain 24hr
in
rain mn
in
humidity
%
barometer
mb
20260509185002 59 296 10.0 21.0 0.00 0.00 0.00 38 1009.7
20260509184507 60 23 12.0 21.0 0.00 0.00 0.00 39 1009.6
20260509184002 60 153 7.0 20.0 0.00 0.00 0.00 40 1009.4
20260509183502 59 334 8.0 20.0 0.00 0.00 0.00 37 1009.6
20260509183010 59 287 8.0 24.0 0.00 0.00 0.00 37 1009.6
20260509182503 59 325 8.0 25.0 0.00 0.00 0.00 37 1009.6
20260509182006 60 317 12.0 25.0 0.00 0.00 0.00 35 1009.4
20260509181505 60 339 10.0 22.0 0.00 0.00 0.00 37 1009.3
20260509181002 60 257 7.0 20.0 0.00 0.00 0.00 45 1009.3
20260509180503 60 324 9.0 20.0 0.00 0.00 0.00 37 1009.3
20260509180008 59 32 6.0 19.0 0.00 0.00 0.00 39 1009.3
20260509175504 59 312 12.0 19.0 0.00 0.00 0.00 38 1009.3
20260509175004 59 22 10.0 19.0 0.00 0.00 0.00 36 1009.2
20260509174510 60 52 10.0 19.0 0.00 0.00 0.00 35 1009.1
20260509174005 60 315 7.0 19.0 0.00 0.00 0.00 40 1009.1
20260509173502 60 305 10.0 22.0 0.00 0.00 0.00 39 1009.1
20260509173010 59 262 13.0 24.0 0.00 0.00 0.00 38 1009.0
20260509172504 59 305 12.0 24.0 0.00 0.00 0.00 34 1009.2
20260509172003 59 291 11.0 24.0 0.00 0.00 0.00 37 1009.1
20260509171511 59 336 12.0 25.0 0.00 0.00 0.00 36 1009.0
20260509171005 59 273 11.0 25.0 0.00 0.00 0.00 36 1008.9
20260509170503 59 196 9.0 21.0 0.00 0.00 0.00 38 1008.9
20260509170013 59 265 7.0 25.0 0.00 0.00 0.00 36 1008.9
20260509165502 59 330 9.0 25.0 0.00 0.00 0.00 37 1009.0
20260509165002 59 280 11.0 19.0 0.00 0.00 0.00 35 1008.8
20260509164513 59 292 10.0 19.0 0.00 0.00 0.00 38 1008.7
20260509164009 58 208 11.0 22.0 0.00 0.00 0.00 41 1008.7
20260509163505 58 293 10.0 23.0 0.00 0.00 0.00 38 1008.7
20260509163021 58 45 8.0 23.0 0.00 0.00 0.00 37 1008.6
20260509162507 58 311 8.0 21.0 0.00 0.00 0.00 39 1008.6
20260509162006 58 165 8.0 22.0 0.00 0.00 0.00 41 1008.5
20260509161527 58 289 9.0 22.0 0.00 0.00 0.00 41 1008.2
20260509161006 57 15 10.0 22.0 0.00 0.00 0.00 40 1008.5
20260509160506 57 327 7.0 25.0 0.00 0.00 0.00 42 1008.2
20260509160022 57 308 9.0 25.0 0.00 0.00 0.00 44 1008.2
20260509155506 57 333 12.0 19.0 0.00 0.00 0.00 43 1008.2
20260509155008 57 323 8.0 22.0 0.00 0.00 0.00 43 1008.1
20260509154514 57 329 6.0 22.0 0.00 0.00 0.00 44 1008.1
20260509154007 57 38 7.0 17.0 0.00 0.00 0.00 46 1008.1
20260509153512 56 309 6.0 17.0 0.00 0.00 0.00 46 1007.9
20260509153014 56 337 8.0 17.0 0.00 0.00 0.00 46 1007.9
20260509152505 56 334 8.0 16.0 0.00 0.00 0.00 47 1007.9
20260509152009 56 315 8.0 20.0 0.00 0.00 0.00 47 1007.9
20260509151521 55 297 11.0 20.0 0.00 0.00 0.00 47 1007.7
20260509151007 55 57 5.0 23.0 0.00 0.00 0.00 50 1007.7
20260509150509 55 324 10.0 23.0 0.00 0.00 0.00 49 1007.7
20260509150023 55 19 9.0 18.0 0.00 0.00 0.00 49 1007.7
20260509145506 54 196 5.0 15.0 0.00 0.00 0.00 54 1007.6
20260509145006 54 295 5.0 19.0 0.00 0.00 0.00 56 1007.6
20260509144517 53 323 8.0 19.0 0.00 0.00 0.00 57 1007.4
20260509144006 53 93 7.0 19.0 0.00 0.00 0.00 56 1007.4
20260509143508 52 311 9.0 19.0 0.00 0.00 0.00 58 1007.3
20260509143023 52 297 9.0 18.0 0.00 0.00 0.00 60 1007.3
20260509142509 52 360 9.0 18.0 0.00 0.00 0.00 61 1007.2
20260509142005 52 331 11.0 18.0 0.00 0.00 0.00 62 1007.1
20260509141524 51 80 7.0 21.0 0.00 0.00 0.00 65 1007.0
20260509141008 51 348 6.0 21.0 0.00 0.00 0.00 63 1007.0
20260509140509 51 303 6.0 20.0 0.00 0.00 0.00 65 1006.8
20260509140018 51 18 6.0 20.0 0.00 0.00 0.00 66 1006.8
20260509135513 52 332 10.0 20.0 0.00 0.00 0.00 66 1006.6
20260509135009 52 338 6.0 19.0 0.00 0.00 0.00 67 1006.5
20260509134518 52 340 7.0 19.0 0.00 0.00 0.00 67 1006.4
20260509134002 52 15 6.0 17.0 0.00 0.00 0.00 70 1006.4
20260509133503 51 317 7.0 17.0 0.00 0.00 0.00 69 1006.2
20260509133003 51 279 5.0 18.0 0.00 0.00 0.00 68 1006.2
20260509132502 51 325 7.0 20.0 0.00 0.00 0.00 68 1006.2
20260509132004 52 344 6.0 20.0 0.00 0.00 0.00 69 1006.1
20260509131513 52 178 8.0 19.0 0.00 0.00 0.00 69 1006.0
20260509131006 51 298 8.0 18.0 0.00 0.00 0.00 71 1005.9
20260509130505 51 309 10.0 18.0 0.00 0.00 0.00 71 1005.8
20260509130006 51 323 5.0 12.0 0.00 0.00 0.00 73 1005.7
20260509125507 51 338 4.0 18.0 0.00 0.00 0.00 72 1005.7
20260509125005 51 50 6.0 21.0 0.00 0.00 0.00 72 1005.6
20260509124507 51 286 9.0 21.0 0.00 0.00 0.00 71 1005.4
20260509124007 51 296 10.0 21.0 0.00 0.00 0.00 71 1005.3
20260509123506 51 284 12.0 21.0 0.00 0.00 0.00 71 1005.3
20260509123009 51 309 8.0 21.0 0.00 0.00 0.00 72 1005.2
20260509122503 51 315 8.0 21.0 0.00 0.00 0.00 72 1005.1
20260509122004 51 295 10.0 20.0 0.00 0.00 0.00 72 1005.0
20260509121513 51 298 11.0 23.0 0.00 0.00 0.00 73 1004.9
20260509121002 51 252 10.0 23.0 0.00 0.00 0.00 72 1004.9
20260509120505 51 298 8.0 19.0 0.00 0.00 0.00 72 1004.8
20260509120017 51 277 8.0 17.0 0.00 0.00 0.00 70 1004.7
20260509115506 51 261 6.0 13.0 0.00 0.00 0.00 70 1004.6
20260509115003 51 298 9.0 13.0 0.00 0.00 0.00 69 1004.5
20260509114514 50 291 6.0 12.0 0.00 0.00 0.00 68 1004.5
20260509114009 50 281 3.0 9.0 0.00 0.00 0.00 68 1004.4
20260509113506 50 257 3.0 8.0 0.00 0.00 0.00 68 1004.3
20260509113006 50 257 2.0 7.0 0.00 0.00 0.00 68 1004.2
20260509112503 50 271 2.0 7.0 0.00 0.00 0.00 68 1004.0
20260509112005 50 265 4.0 7.0 0.00 0.00 0.00 68 1003.9
20260509111507 50 259 2.0 6.0 0.00 0.00 0.00 69 1003.9
20260509111006 50 269 3.0 6.0 0.00 0.00 0.00 68 1003.8
20260509110507 50 291 1.0 7.0 0.00 0.00 0.00 68 1003.8
20260509110021 50 249 3.0 7.0 0.00 0.00 0.00 68 1003.8
20260509105502 50 244 2.0 6.0 0.00 0.00 0.00 68 1003.7
20260509105007 51 257 2.0 6.0 0.00 0.00 0.00 68 1003.6
20260509104523 51 265 2.0 6.0 0.00 0.00 0.00 66 1003.7
20260509104002 51 284 3.0 8.0 0.00 0.00 0.00 66 1003.6
20260509103503 51 296 4.0 8.0 0.00 0.00 0.00 65 1003.7
20260509103006 51 265 2.0 8.0 0.00 0.00 0.00 64 1003.3
20260509102503 51 128 3.0 7.0 0.00 0.00 0.00 63 1003.1
20260509102007 51 158 1.0 5.0 0.00 0.00 0.00 62 1003.2
20260509101516 51 165 1.0 5.0 0.00 0.00 0.00 62 1003.4
20260509101010 51 236 2.0 4.0 0.00 0.00 0.00 64 1003.6
20260509100502 51 250 2.0 3.0 0.00 0.00 0.00 60 1003.4
20260509100016 51 137 0.0 7.0 0.00 0.00 0.00 59 1003.4
20260509095506 51 309 2.0 9.0 0.00 0.00 0.00 59 1003.7
20260509095008 51 307 2.0 9.0 0.00 0.00 0.00 59 1003.9
20260509094511 50 291 2.0 11.0 0.00 0.00 0.00 59 1003.9
20260509094007 50 323 4.0 11.0 0.00 0.00 0.00 59 1003.8
20260509093505 50 337 4.0 9.0 0.00 0.00 0.00 59 1003.7
20260509093012 50 328 3.0 8.0 0.00 0.00 0.00 58 1003.7
20260509092502 49 336 2.0 8.0 0.00 0.00 0.00 57 1003.8
20260509092005 49 17 2.0 5.0 0.00 0.00 0.00 56 1003.6
20260509091518 49 304 2.0 5.0 0.00 0.00 0.00 55 1003.6
20260509091003 49 312 2.0 5.0 0.00 0.00 0.00 55 1003.6
20260509090506 49 309 2.0 6.0 0.00 0.00 0.00 55 1003.4
20260509090024 49 312 2.0 6.0 0.00 0.00 0.00 55 1003.4
20260509085508 49 328 2.0 7.0 0.00 0.00 0.00 53 1003.2
20260509085006 49 316 2.0 9.0 0.00 0.00 0.00 53 1003.4
20260509084525 49 300 2.0 10.0 0.00 0.00 0.00 54 1003.3
20260509084014 49 286 3.0 10.0 0.00 0.00 0.00 54 1003.3
20260509083502 49 265 3.0 14.0 0.00 0.00 0.00 54 1003.2
20260509083013 49 319 6.0 14.0 0.00 0.00 0.00 55 1003.4
20260509082506 48 300 6.0 9.0 0.00 0.00 0.00 56 1002.7
20260509082007 48 261 3.0 8.0 0.00 0.00 0.00 57 1002.5
20260509081515 48 238 4.0 8.0 0.00 0.00 0.00 58 1002.5
20260509081010 48 259 2.0 7.0 0.00 0.00 0.00 59 1002.4
20260509080507 48 234 2.0 6.0 0.00 0.00 0.00 59 1002.4
20260509080026 48 216 2.0 6.0 0.00 0.00 0.00 59 1002.4
20260509075508 48 275 3.0 5.0 0.00 0.00 0.00 59 1002.4
20260509075007 48 247 2.0 5.0 0.00 0.00 0.00 59 1002.4
20260509074525 48 232 2.0 5.0 0.00 0.00 0.00 60 1002.2
20260509074006 48 238 2.0 4.0 0.00 0.00 0.00 61 1002.2
20260509073509 48 219 2.0 3.0 0.00 0.00 0.00 60 1002.2
20260509073029 48 232 2.0 4.0 0.00 0.00 0.00 60 1002.3
20260509072509 48 221 2.0 4.0 0.00 0.00 0.00 59 1002.3
20260509072007 48 226 2.0 3.0 0.00 0.00 0.00 60 1002.4
20260509071521 48 205 1.0 3.0 0.00 0.00 0.00 60 1002.5
20260509071008 48 254 1.0 4.0 0.00 0.00 0.00 60 1002.6
20260509070504 48 232 2.0 5.0 0.00 0.00 0.00 60 1002.6
20260509070022 48 215 2.0 5.0 0.00 0.00 0.00 61 1002.5
20260509065509 48 202 2.0 4.0 0.00 0.00 0.00 64 1002.6
20260509065006 48 230 2.0 4.0 0.00 0.00 0.00 64 1002.7
20260509064516 48 215 2.0 4.0 0.00 0.00 0.00 64 1002.7
20260509064010 48 205 2.0 4.0 0.00 0.00 0.00 62 1002.8
20260509063503 49 227 1.0 4.0 0.00 0.00 0.00 62 1002.9
20260509063014 49 227 1.0 4.0 0.00 0.00 0.00 59 1003.0
20260509062508 49 232 2.0 4.0 0.00 0.00 0.00 60 1003.1
20260509062010 49 221 2.0 5.0 0.00 0.00 0.00 58 1003.0
20260509061521 49 209 3.0 5.0 0.00 0.00 0.00 59 1002.9
20260509061007 49 219 3.0 5.0 0.00 0.00 0.00 61 1003.1
20260509060509 50 230 2.0 4.0 0.00 0.00 0.00 58 1003.1
20260509060040 50 232 1.0 3.0 0.00 0.00 0.00 52 1003.0
20260509055511 50 265 0.0 4.0 0.00 0.00 0.00 49 1003.1
20260509055008 51 178 1.0 4.0 0.00 0.00 0.00 49 1003.2
20260509054524 51 163 1.0 5.0 0.00 0.00 0.00 47 1003.3
20260509054009 51 255 2.0 5.0 0.00 0.00 0.00 46 1003.4
20260509053506 52 234 3.0 7.0 0.00 0.00 0.00 46 1003.5
20260509053022 52 247 3.0 7.0 0.00 0.00 0.00 48 1003.6
20260509052508 53 221 2.0 7.0 0.00 0.00 0.00 46 1003.5
20260509052008 53 265 1.0 3.0 0.00 0.00 0.00 41 1003.5
20260509051522 54 250 1.0 3.0 0.00 0.00 0.00 40 1003.3
20260509051007 54 282 1.0 3.0 0.00 0.00 0.00 39 1003.6
20260509050510 55 250 2.0 6.0 0.00 0.00 0.00 39 1003.7
20260509050018 55 254 1.0 6.0 0.00 0.00 0.00 39 1003.7
20260509045510 55 291 1.0 6.0 0.00 0.00 0.00 39 1003.8
20260509045010 56 291 2.0 6.0 0.00 0.00 0.00 39 1003.8
20260509044534 56 284 1.0 6.0 0.00 0.00 0.00 38 1003.7
20260509044008 56 271 3.0 6.0 0.00 0.00 0.00 38 1003.8
20260509043503 56 270 2.0 8.0 0.00 0.00 0.00 37 1003.8
20260509043029 57 265 2.0 8.0 0.00 0.00 0.00 36 1003.7
20260509042506 57 273 3.0 8.0 0.00 0.00 0.00 36 1003.8
20260509042008 57 304 2.0 8.0 0.00 0.00 0.00 35 1003.9
20260509041524 58 288 2.0 10.0 0.00 0.00 0.00 35 1003.9
20260509041007 58 282 3.0 10.0 0.00 0.00 0.00 34 1004.0
20260509040504 58 302 4.0 11.0 0.00 0.00 0.00 34 1004.0
20260509040026 58 280 4.0 12.0 0.00 0.00 0.00 34 1004.0
20260509035511 58 291 6.0 12.0 0.00 0.00 0.00 33 1004.0
20260509035008 59 303 6.0 11.0 0.00 0.00 0.00 33 1003.9
20260509034527 59 306 6.0 12.0 0.00 0.00 0.00 33 1003.9
20260509034011 59 293 4.0 14.0 0.00 0.00 0.00 33 1003.9
20260509033507 59 279 4.0 14.0 0.00 0.00 0.00 34 1003.9
20260509033020 60 303 5.0 12.0 0.00 0.00 0.00 32 1003.9
20260509032506 60 290 5.0 13.0 0.00 0.00 0.00 33 1003.7
20260509032009 60 325 5.0 16.0 0.00 0.00 0.00 32 1003.7
20260509031528 60 287 8.0 16.0 0.00 0.00 0.00 32 1003.6
20260509031007 61 279 7.0 19.0 0.00 0.00 0.00 33 1003.5
20260509030510 61 306 9.0 19.0 0.00 0.00 0.00 32 1003.5
20260509030025 61 292 5.0 16.0 0.00 0.00 0.00 32 1003.5
20260509025507 62 313 10.0 20.0 0.00 0.00 0.00 32 1003.5
20260509025010 62 309 8.0 20.0 0.00 0.00 0.00 32 1003.5
20260509024527 62 323 8.0 20.0 0.00 0.00 0.00 31 1003.4
20260509024005 62 300 10.0 21.0 0.00 0.00 0.00 31 1003.4
20260509023507 62 336 10.0 21.0 0.00 0.00 0.00 31 1003.3
20260509023023 62 325 10.0 21.0 0.00 0.00 0.00 32 1003.2
20260509022509 62 259 8.0 21.0 0.00 0.00 0.00 31 1003.2
20260509022008 62 284 8.0 19.0 0.00 0.00 0.00 31 1003.1
20260509021532 63 273 7.0 20.0 0.00 0.00 0.00 31 1003.0
20260509021009 63 315 9.0 20.0 0.00 0.00 0.00 30 1002.8
20260509020509 63 308 10.0 18.0 0.00 0.00 0.00 30 1002.9
20260509020022 63 279 10.0 19.0 0.00 0.00 0.00 30 1002.7
20260509015508 63 298 7.0 19.0 0.00 0.00 0.00 29 1002.6
20260509015010 63 254 10.0 17.0 0.00 0.00 0.00 29 1002.6
20260509014529 64 316 7.0 14.0 0.00 0.00 0.00 29 1002.5
20260509014006 64 245 7.0 15.0 0.00 0.00 0.00 28 1002.5
20260509013508 64 252 8.0 15.0 0.00 0.00 0.00 28 1002.4
20260509013022 64 250 5.0 13.0 0.00 0.00 0.00 28 1002.3
20260509012509 65 302 8.0 14.0 0.00 0.00 0.00 27 1002.3
20260509012007 65 298 7.0 17.0 0.00 0.00 0.00 27 1002.3
20260509011528 65 289 7.0 17.0 0.00 0.00 0.00 27 1002.2
20260509011011 66 239 8.0 15.0 0.00 0.00 0.00 27 1002.2
20260509010509 66 319 7.0 14.0 0.00 0.00 0.00 27 1002.1
20260509010035 66 309 4.0 15.0 0.00 0.00 0.00 27 1002.1
20260509005510 66 291 8.0 17.0 0.00 0.00 0.00 25 1002.0
20260509005005 67 247 9.0 20.0 0.00 0.00 0.00 26 1002.0
20260509004505 67 229 13.0 24.0 0.00 0.00 0.00 25 1002.0
20260509004004 67 255 12.0 24.0 0.00 0.00 0.00 25 1002.0
20260509003507 68 286 11.0 21.0 0.00 0.00 0.00 26 1001.9
20260509003023 68 241 12.0 21.0 0.00 0.00 0.00 25 1001.9
20260509002505 68 246 10.0 21.0 0.00 0.00 0.00 25 1001.9
20260509002002 69 277 9.0 20.0 0.00 0.00 0.00 25 1001.9
20260509001510 69 268 9.0 20.0 0.00 0.00 0.00 26 1001.9
20260509001003 69 255 8.0 21.0 0.00 0.00 0.00 26 1001.9
20260509000503 69 277 11.0 23.0 0.00 0.00 0.00 25 1001.9
20260509000016 69 315 12.0 23.0 0.00 0.00 0.00 26 1001.9
20260508235506 69 300 9.0 21.0 0.00 0.00 0.00 26 1001.9
20260508235004 70 314 5.0 27.0 0.00 0.00 0.00 26 1001.9
20260508234515 70 298 14.0 27.0 0.00 0.00 0.00 26 1001.9
20260508234008 70 263 11.0 18.0 0.00 0.00 0.00 26 1001.9
20260508233502 70 238 8.0 20.0 0.00 0.00 0.00 26 1001.9
20260508233012 70 261 9.0 21.0 0.00 0.00 0.00 27 1001.9
20260508232502 70 276 12.0 21.0 0.00 0.00 0.00 27 1001.9
20260508232005 70 288 12.0 20.0 0.00 0.00 0.00 27 1002.0
20260508231506 71 252 10.0 20.0 0.00 0.00 0.00 26 1002.0
20260508231004 71 234 12.0 30.0 0.00 0.00 0.00 25 1002.0
20260508230505 71 310 12.0 30.0 0.00 0.00 0.00 25 1002.0
20260508230022 72 248 15.0 28.0 0.00 0.00 0.00 25 1002.2
20260508225505 71 298 10.0 28.0 0.00 0.00 0.00 26 1002.0
20260508225009 71 242 15.0 28.0 0.00 0.00 0.00 25 1002.0
20260508224528 71 262 11.0 21.0 0.00 0.00 0.00 26 1001.9
20260508224002 72 287 12.0 20.0 0.00 0.00 0.00 24 1001.9
20260508223507 73 250 6.0 17.0 0.00 0.00 0.00 28 1001.9
20260508223017 72 277 8.0 21.0 0.00 0.00 0.00 29 1001.9
20260508222503 71 277 11.0 22.0 0.00 0.00 0.00 26 1001.9
20260508222003 71 246 14.0 22.0 0.00 0.00 0.00 27 1001.8
20260508221512 71 265 10.0 18.0 0.00 0.00 0.00 25 1001.9
20260508221008 71 265 7.0 18.0 0.00 0.00 0.00 28 1002.0
20260508220503 70 284 9.0 18.0 0.00 0.00 0.00 27 1002.0
20260508220020 70 331 7.0 15.0 0.00 0.00 0.00 26 1002.1
20260508215508 70 250 9.0 18.0 0.00 0.00 0.00 25 1002.1
20260508215009 70 231 11.0 18.0 0.00 0.00 0.00 26 1002.2
20260508214531 70 271 10.0 18.0 0.00 0.00 0.00 27 1002.3
20260508214005 71 265 8.0 15.0 0.00 0.00 0.00 25 1002.3
20260508213508 70 277 9.0 17.0 0.00 0.00 0.00 26 1002.4
20260508213033 69 240 7.0 17.0 0.00 0.00 0.00 27 1002.4
20260508212511 69 317 7.0 17.0 0.00 0.00 0.00 26 1002.5
20260508212014 69 237 10.0 17.0 0.00 0.00 0.00 26 1002.5
20260508211524 69 241 8.0 17.0 0.00 0.00 0.00 26 1002.6
20260508211005 69 239 11.0 17.0 0.00 0.00 0.00 24 1002.7
20260508210506 70 232 4.0 12.0 0.00 0.00 0.00 28 1002.8
20260508210023 70 257 6.0 17.0 0.00 0.00 0.00 25 1002.9
20260508205509 69 311 6.0 17.0 0.00 0.00 0.00 27 1002.9
20260508205009 69 310 8.0 15.0 0.00 0.00 0.00 24 1003.0
20260508204531 70 311 9.0 15.0 0.00 0.00 0.00 25 1003.0
20260508204013 71 304 8.0 16.0 0.00 0.00 0.00 24 1003.1
20260508203509 70 289 10.0 22.0 0.00 0.00 0.00 25 1003.2
20260508203028 69 232 11.0 22.0 0.00 0.00 0.00 27 1003.3
20260508202508 69 271 11.0 17.0 0.00 0.00 0.00 24 1003.4
20260508202012 69 238 9.0 15.0 0.00 0.00 0.00 27 1003.4
20260508201529 69 280 6.0 15.0 0.00 0.00 0.00 25 1003.5
20260508201006 69 306 8.0 15.0 0.00 0.00 0.00 24 1003.7
20260508200506 69 288 9.0 17.0 0.00 0.00 0.00 24 1003.7
20260508200022 69 312 9.0 17.0 0.00 0.00 0.00 25 1003.8
20260508195509 70 263 9.0 16.0 0.00 0.00 0.00 24 1003.9
20260508195010 71 269 11.0 20.0 0.00 0.00 0.00 24 1003.9
20260508194528 70 312 7.0 20.0 0.00 0.00 0.00 27 1004.0
20260508194009 69 275 8.0 16.0 0.00 0.00 0.00 29 1004.1
20260508193507 68 265 8.0 16.0 0.00 0.00 0.00 27 1004.2
20260508193026 68 311 9.0 15.0 0.00 0.00 0.00 28 1004.5
20260508192511 68 286 6.0 16.0 0.00 0.00 0.00 27 1004.5
20260508192009 68 307 10.0 16.0 0.00 0.00 0.00 26 1004.5
20260508191528 68 262 9.0 15.0 0.00 0.00 0.00 26 1004.6
20260508191007 68 242 9.0 16.0 0.00 0.00 0.00 27 1004.5
20260508190506 68 346 10.0 19.0 0.00 0.00 0.00 26 1004.5
20260508190027 68 259 12.0 24.0 0.00 0.00 0.00 24 1004.6
20260508185511 69 262 11.0 23.0 0.00 0.00 0.00 25 1004.6